GW0774 Weather Reports


time (UTC)temp
F
wind
direction
speed
knots
gust
knots
rain 1hr
in
rain 24hr
in
rain mn
in
humidity
%
barometer
mb
20260507004039 71 254 4.3 11.3 0.00 0.00 0.00 61 1019.9
20260507003539 70 32 2.6 11.3 0.00 0.00 0.00 65 1020.0
20260507003047 70 277 6.1 11.3 0.00 0.00 0.00 63 1020.1
20260507002538 70 286 2.6 13.0 0.00 0.00 0.00 64 1020.3
20260507002039 70 248 3.5 13.0 0.00 0.00 0.00 66 1020.5
20260507001555 70 304 2.6 8.7 0.00 0.00 0.00 67 1020.6
20260507001038 69 128 2.6 7.0 0.00 0.00 0.00 67 1020.8
20260507000541 69 46 1.7 8.7 0.00 0.00 0.00 66 1020.8
20260507000051 69 265 2.6 9.6 0.00 0.00 0.00 67 1020.8
20260506235540 69 52 4.3 9.6 0.00 0.00 0.00 67 1020.9
20260506235038 69 325 3.5 9.6 0.00 0.00 0.00 66 1020.9
20260506234548 69 295 4.3 7.8 0.00 0.00 0.00 68 1020.9
20260506234039 70 47 2.6 7.0 0.00 0.00 0.00 67 1021.0
20260506233539 70 244 1.7 7.0 0.00 0.00 0.00 69 1021.0
20260506233049 70 46 1.7 5.2 0.00 0.00 0.00 67 1021.1
20260506232538 70 194 0.9 5.2 0.00 0.00 0.00 70 1021.2
20260506232038 69 184 0.9 5.2 0.00 0.00 0.00 70 1021.2
20260506231544 69 329 1.7 5.2 0.00 0.00 0.00 71 1021.3
20260506231039 68 63 1.7 6.1 0.00 0.00 0.00 72 1021.3
20260506230541 68 49 1.7 7.0 0.00 0.00 0.00 72 1021.5
20260506230052 67 53 2.6 7.0 0.00 0.00 0.00 73 1021.6
20260506225540 67 26 1.7 7.0 0.00 0.00 0.00 74 1021.6
20260506225038 66 263 1.7 5.2 0.00 0.00 0.00 76 1021.7
20260506224545 65 88 1.7 5.2 0.00 0.00 0.00 79 1021.8
20260506224038 65 217 2.6 5.2 0.00 0.00 0.00 82 1021.8
20260506223539 64 69 0.9 2.6 0.00 0.00 0.00 82 1021.8
20260506223039 63 101 0.9 2.6 0.00 0.00 0.00 82 1021.9
20260506222539 62 0 0.0 1.7 0.00 0.00 0.00 83 1021.9
20260506222039 62 0 0.0 1.7 0.00 0.00 0.00 84 1021.9
20260506221542 61 0 0.0 2.6 0.00 0.00 0.00 84 1021.9
20260506221039 60 111 0.9 2.6 0.00 0.00 0.00 85 1021.8
20260506220536 60 0 0.9 2.6 0.00 0.00 0.00 85 1022.0
20260506220106 59 94 0.9 2.6 0.00 0.00 0.00 85 1022.0
20260506215536 59 94 0.0 0.9 0.00 0.00 0.00 85 1022.2
20260506215038 58 94 0.0 1.7 0.00 0.00 0.00 86 1022.2
20260506214548 58 0 0.0 1.7 0.00 0.00 0.00 86 1022.2
20260506214036 58 94 0.9 1.7 0.00 0.00 0.00 86 1022.3
20260506213538 57 94 0.0 0.9 0.00 0.00 0.00 86 1022.4
20260506213050 57 0 0.0 0.9 0.00 0.00 0.00 86 1022.4
20260506212538 57 0 0.0 0.9 0.00 0.00 0.00 86 1022.4
20260506212041 57 0 0.0 3.5 0.00 0.00 0.00 88 1022.4
20260506211544 57 94 0.9 3.5 0.00 0.00 0.00 88 1022.5
20260506211039 57 104 2.6 3.5 0.00 0.00 0.00 89 1022.5
20260506210542 56 109 1.7 3.5 0.00 0.00 0.00 90 1022.5
20260506210045 56 107 1.7 3.5 0.00 0.00 0.00 90 1022.4
20260506205539 56 94 0.9 3.5 0.00 0.00 0.00 90 1022.5
20260506205041 56 94 0.9 3.5 0.00 0.00 0.00 91 1022.6
20260506204552 55 88 0.9 3.5 0.00 0.00 0.00 91 1022.7
20260506204038 56 88 0.0 1.7 0.00 0.00 0.00 92 1022.7
20260506203540 55 0 0.0 1.7 0.00 0.00 0.00 93 1022.9
20260506203138 55 0 0.9 3.5 0.00 0.00 0.00 94 1022.8
20260506202538 54 108 0.9 3.5 0.00 0.00 0.00 94 1022.8
20260506202040 54 88 1.7 3.5 0.00 0.00 0.00 95 1022.8
20260506201549 53 90 0.0 3.5 0.00 0.00 0.00 97 1022.8
20260506201039 51 84 0.9 3.5 0.00 0.00 0.00 97 1022.7
20260506200539 50 91 0.9 2.6 0.00 0.00 0.00 96 1022.8
20260506200052 50 94 0.9 1.7 0.00 0.00 0.00 96 1022.9
20260506195539 49 0 0.0 0.9 0.00 0.00 0.00 96 1022.9
20260506195039 49 0 0.0 0.9 0.00 0.00 0.00 96 1022.9
20260506194549 49 0 0.0 0.9 0.00 0.00 0.00 96 1022.8
20260506194040 49 94 0.0 0.9 0.00 0.00 0.00 96 1022.9
20260506193538 49 94 0.0 0.9 0.00 0.00 0.00 96 1023.1
20260506193049 49 94 0.9 0.9 0.00 0.00 0.00 96 1022.8
20260506192538 49 94 0.9 0.9 0.00 0.00 0.00 96 1022.9
20260506192038 49 0 0.0 0.9 0.00 0.00 0.00 96 1022.9
20260506191552 49 0 0.0 0.0 0.00 0.00 0.00 96 1022.9
20260506191039 49 0 0.0 0.0 0.00 0.00 0.00 96 1022.8
20260506190540 49 0 0.0 0.9 0.00 0.00 0.00 96 1022.9
20260506190049 49 0 0.0 0.9 0.00 0.00 0.00 97 1022.8
20260506185540 49 0 0.0 0.9 0.00 0.00 0.00 96 1022.7
20260506185039 49 0 0.0 0.9 0.00 0.00 0.00 96 1022.8
20260506184552 49 0 0.0 0.9 0.00 0.00 0.00 96 1022.8
20260506184040 49 0 0.0 0.9 0.00 0.00 0.00 96 1022.7
20260506183538 49 0 0.0 0.9 0.00 0.00 0.00 96 1022.8
20260506183049 49 94 0.0 0.9 0.00 0.00 0.00 96 1022.6
20260506182538 49 0 0.0 0.9 0.00 0.00 0.00 95 1022.8
20260506182042 49 0 0.0 0.9 0.00 0.00 0.00 95 1022.8
20260506181547 50 95 0.0 0.9 0.00 0.00 0.00 96 1022.7
20260506181039 50 94 0.0 1.7 0.00 0.00 0.00 96 1022.9
20260506180540 50 0 0.9 1.7 0.00 0.00 0.00 96 1022.9
20260506180053 50 94 0.0 1.7 0.00 0.00 0.00 96 1022.9
20260506175539 50 94 0.0 3.5 0.00 0.00 0.00 96 1023.1
20260506175043 49 95 0.9 3.5 0.00 0.00 0.00 95 1023.1
20260506174605 50 79 1.7 3.5 0.00 0.00 0.00 95 1023.2
20260506174040 50 102 0.0 0.9 0.00 0.00 0.00 95 1023.1
20260506173539 51 102 0.0 0.9 0.00 0.00 0.00 96 1023.2
20260506173055 50 0 0.0 0.0 0.00 0.00 0.00 96 1023.3
20260506172538 51 0 0.0 0.0 0.00 0.00 0.00 96 1023.3
20260506172040 51 0 0.0 0.0 0.00 0.00 0.00 96 1023.4
20260506171604 50 0 0.0 0.9 0.00 0.00 0.00 96 1023.3
20260506171040 51 0 0.0 0.9 0.00 0.00 0.00 95 1023.5
20260506170539 51 102 0.0 0.9 0.00 0.00 0.00 95 1023.4
20260506170048 51 102 0.0 0.9 0.00 0.00 0.00 95 1023.5
20260506165539 51 102 0.0 0.9 0.00 0.00 0.00 95 1023.6
20260506165040 51 0 0.0 0.9 0.00 0.00 0.00 95 1023.7
20260506164558 52 102 0.0 1.7 0.00 0.00 0.00 95 1023.7
20260506164039 52 0 0.9 1.7 0.00 0.00 0.00 96 1023.7
20260506163539 52 102 0.0 0.9 0.00 0.00 0.00 96 1023.7
20260506163121 52 0 0.0 0.9 0.00 0.00 0.00 96 1023.8
20260506162539 52 0 0.0 0.9 0.00 0.00 0.00 96 1023.9
20260506162040 52 0 0.0 0.9 0.00 0.00 0.00 96 1024.0
20260506161554 52 0 0.0 0.9 0.00 0.00 0.00 96 1024.1
20260506161044 52 0 0.0 0.0 0.00 0.00 0.00 95 1024.0
20260506160539 52 0 0.0 0.0 0.00 0.00 0.00 96 1024.0
20260506160056 52 0 0.0 0.0 0.00 0.00 0.00 95 1024.1
20260506155538 52 0 0.0 0.0 0.00 0.00 0.00 95 1024.2
20260506155038 52 0 0.0 0.9 0.00 0.00 0.00 95 1024.1
20260506154552 52 0 0.0 0.9 0.00 0.00 0.00 95 1024.1
20260506154131 52 0 0.0 1.7 0.00 0.00 0.00 95 1024.1
20260506153541 52 92 0.0 1.7 0.00 0.00 0.00 96 1024.1
20260506153055 52 0 0.0 0.9 0.00 0.00 0.00 96 1024.4
20260506152539 52 82 0.0 0.0 0.00 0.00 0.00 95 1024.3
20260506152040 52 0 0.0 0.0 0.00 0.00 0.00 95 1024.3
20260506151550 53 0 0.0 0.0 0.00 0.00 0.00 95 1024.3
20260506151039 53 0 0.0 0.9 0.00 0.00 0.00 95 1024.5
20260506150539 53 0 0.0 0.9 0.00 0.00 0.00 95 1024.6
20260506150048 53 0 0.0 0.9 0.00 0.00 0.00 95 1024.6
20260506145539 53 0 0.0 0.0 0.00 0.00 0.00 95 1024.7
20260506145040 53 0 0.0 0.9 0.00 0.00 0.00 95 1024.9
20260506144552 53 0 0.0 0.9 0.00 0.00 0.00 95 1024.9
20260506144039 53 77 0.0 0.9 0.00 0.00 0.00 95 1024.9
20260506143540 53 0 0.0 0.0 0.00 0.00 0.00 95 1024.9
20260506143050 53 0 0.0 0.0 0.00 0.00 0.00 95 1024.9
20260506142542 53 0 0.0 0.0 0.00 0.00 0.00 95 1025.0
20260506142039 54 0 0.0 0.0 0.00 0.00 0.00 95 1025.0
20260506141554 54 0 0.0 0.0 0.00 0.00 0.00 95 1025.1
20260506141039 54 0 0.0 0.0 0.00 0.00 0.00 95 1025.2
20260506140539 54 0 0.0 0.0 0.00 0.00 0.00 95 1025.1
20260506140054 54 0 0.0 0.0 0.00 0.00 0.00 95 1025.2
20260506135539 54 0 0.0 0.0 0.00 0.00 0.00 95 1025.3
20260506135036 54 0 0.0 0.0 0.00 0.00 0.00 95 1025.2
20260506134553 54 0 0.0 0.0 0.00 0.00 0.00 95 1025.2
20260506134043 54 0 0.0 0.0 0.00 0.00 0.00 95 1025.2
20260506133539 54 77 0.0 0.9 0.00 0.00 0.00 95 1025.2
20260506133054 54 0 0.0 0.9 0.00 0.00 0.00 95 1025.3
20260506132536 55 77 0.0 0.9 0.00 0.00 0.00 95 1025.3
20260506132036 55 77 0.0 0.9 0.00 0.00 0.00 95 1025.3
20260506131548 55 0 0.0 0.0 0.00 0.00 0.00 95 1025.3
20260506131039 55 0 0.0 0.0 0.00 0.00 0.00 95 1025.3
20260506130540 55 0 0.0 0.9 0.00 0.00 0.00 95 1025.2
20260506130050 55 0 0.0 0.9 0.00 0.00 0.00 96 1025.3
20260506125540 55 0 0.0 0.0 0.00 0.00 0.00 96 1025.4
20260506125039 55 0 0.0 0.0 0.00 0.00 0.00 95 1025.2
20260506124550 55 0 0.0 0.0 0.00 0.00 0.00 95 1025.4
20260506124036 55 0 0.0 0.0 0.00 0.00 0.00 95 1025.4
20260506123536 55 0 0.0 0.0 0.00 0.00 0.00 95 1025.3
20260506123050 55 0 0.0 0.0 0.00 0.00 0.00 95 1025.4
20260506122535 55 0 0.0 0.0 0.00 0.00 0.00 95 1025.3
20260506122036 55 0 0.0 0.0 0.00 0.00 0.00 95 1025.3
20260506121604 55 0 0.0 0.0 0.00 0.00 0.00 95 1025.3
20260506121036 55 0 0.0 0.0 0.00 0.00 0.00 96 1025.4
20260506120537 55 0 0.0 0.0 0.00 0.00 0.00 96 1025.3
20260506120050 55 0 0.0 0.0 0.00 0.00 0.00 96 1025.3
20260506115540 55 0 0.0 0.0 0.00 0.00 0.00 95 1025.3
20260506115037 55 0 0.0 0.0 0.00 0.00 0.00 95 1025.3
20260506114546 55 0 0.0 0.9 0.00 0.00 0.00 95 1025.3
20260506114040 55 0 0.0 0.9 0.00 0.00 0.00 95 1025.3
20260506113539 55 0 0.0 0.9 0.00 0.00 0.00 95 1025.2
20260506113047 55 0 0.0 1.7 0.00 0.00 0.00 96 1025.3
20260506112537 55 0 0.0 1.7 0.00 0.00 0.00 96 1025.4
20260506112039 55 81 0.0 1.7 0.00 0.00 0.00 96 1025.3
20260506111544 55 82 0.9 1.7 0.00 0.00 0.00 96 1025.3
20260506111036 55 88 0.9 1.7 0.00 0.00 0.00 96 1025.3
20260506110539 55 62 0.9 1.7 0.00 0.00 0.00 96 1025.4
20260506110051 55 78 0.9 1.7 0.00 0.00 0.00 96 1025.5
20260506105536 55 78 0.9 1.7 0.00 0.00 0.00 96 1025.6
20260506105037 55 71 0.9 1.7 0.00 0.00 0.00 96 1025.6
20260506104549 55 83 0.9 1.7 0.00 0.00 0.00 96 1025.6
20260506104036 55 78 0.0 1.7 0.00 0.00 0.00 96 1025.6
20260506103539 55 79 0.0 1.7 0.00 0.00 0.00 96 1025.6
20260506103048 55 0 0.0 1.7 0.00 0.00 0.00 96 1025.6
20260506102540 55 79 0.0 0.9 0.00 0.00 0.00 96 1025.6
20260506102044 55 79 0.0 1.7 0.00 0.00 0.00 96 1025.6
20260506101608 55 79 0.0 1.7 0.00 0.00 0.00 96 1025.7
20260506101039 56 75 0.9 1.7 0.00 0.00 0.00 96 1025.6
20260506100539 56 73 0.0 1.7 0.00 0.00 0.00 96 1025.6
20260506100048 56 73 0.9 1.7 0.00 0.00 0.00 96 1025.7
20260506095539 55 0 0.0 0.0 0.00 0.00 0.00 96 1025.6
20260506095039 55 0 0.0 0.0 0.00 0.00 0.00 96 1025.6
20260506094553 54 0 0.0 0.0 0.00 0.00 0.00 96 1025.8
20260506094039 54 0 0.0 0.0 0.00 0.00 0.00 96 1025.7
20260506093540 54 0 0.0 0.9 0.00 0.00 0.00 96 1025.7
20260506093043 54 0 0.0 0.9 0.00 0.00 0.00 96 1025.8
20260506092539 54 73 0.0 0.9 0.00 0.00 0.00 96 1025.7
20260506092039 54 0 0.0 0.9 0.00 0.00 0.00 96 1025.9
20260506091545 54 0 0.0 0.9 0.00 0.00 0.00 95 1025.8
20260506091039 54 73 0.0 0.9 0.00 0.00 0.00 95 1025.8
20260506090540 54 0 0.0 2.6 0.00 0.00 0.00 96 1026.0
20260506090059 54 0 0.9 2.6 0.00 0.00 0.00 97 1025.9
20260506085536 53 69 0.9 2.6 0.00 0.00 0.00 96 1026.0
20260506085040 52 75 0.9 3.5 0.00 0.00 0.00 95 1026.0
20260506084552 52 76 0.9 3.5 0.00 0.00 0.00 95 1025.9
20260506084039 52 71 2.6 6.1 0.00 0.00 0.00 95 1026.0
20260506083540 52 70 1.7 7.0 0.00 0.00 0.00 94 1025.9
20260506083045 54 63 2.6 7.0 0.00 0.00 0.00 91 1025.9
20260506082540 55 0 0.0 0.0 0.00 0.00 0.00 95 1025.8
20260506082040 55 0 0.0 0.0 0.00 0.00 0.00 95 1025.7
20260506081557 54 0 0.0 0.0 0.00 0.00 0.00 95 1025.8
20260506081043 54 0 0.0 0.0 0.00 0.00 0.00 95 1025.8
20260506080540 54 0 0.0 0.0 0.00 0.00 0.00 95 1025.9
20260506073046 54 0 0.0 0.0 0.00 0.00 0.00 93 1025.9
20260506072541 55 0 0.0 0.0 0.00 0.00 0.00 94 1025.9
20260506072041 55 0 0.0 0.0 0.00 0.00 0.00 94 1025.9
20260506071549 55 0 0.0 0.0 0.00 0.00 0.00 93 1025.8
20260506071044 56 0 0.0 0.0 0.00 0.00 0.00 93 1025.6
20260506070540 56 0 0.0 0.9 0.00 0.00 0.00 93 1025.6
20260506062040 58 270 0.9 1.7 0.00 0.00 0.00 92 1025.4
20260506061549 58 270 0.9 2.6 0.00 0.00 0.00 92 1025.4
20260506061041 59 282 0.9 2.6 0.00 0.00 0.00 92 1025.4
20260506060540 59 232 0.9 2.6 0.00 0.00 0.00 91 1025.4
20260506051038 61 234 2.6 4.3 0.00 0.00 0.00 87 1025.4
20260506050538 62 241 3.5 5.2 0.00 0.00 0.00 86 1025.5
20260506050114 62 240 3.5 5.2 0.00 0.00 0.00 86 1025.5
20260506045039 62 239 3.5 6.1 0.00 0.00 0.00 85 1025.6
20260506044548 62 236 3.5 7.0 0.00 0.00 0.00 84 1025.6
20260506044039 63 238 3.5 7.0 0.00 0.00 0.00 83 1025.6
20260506043536 63 242 3.5 7.8 0.00 0.00 0.00 82 1025.7
20260506043050 64 234 4.3 8.7 0.00 0.00 0.00 80 1025.6
20260506042540 64 243 5.2 8.7 0.00 0.00 0.00 80 1025.5
20260506042042 65 230 5.2 7.8 0.00 0.00 0.00 79 1025.6
20260506041558 65 238 4.3 7.8 0.00 0.00 0.00 79 1025.6
20260506041038 65 236 5.2 7.8 0.00 0.00 0.00 78 1025.6
20260506040538 66 238 4.3 7.0 0.00 0.00 0.00 78 1025.6
20260506040051 66 238 5.2 7.0 0.00 0.00 0.00 77 1025.6
20260506035541 66 251 4.3 7.8 0.00 0.00 0.00 77 1025.5
20260506035039 67 250 4.3 9.6 0.00 0.00 0.00 76 1025.5
20260506034553 67 243 5.2 9.6 0.00 0.00 0.00 75 1025.6
20260506034038 67 255 6.1 9.6 0.00 0.00 0.00 75 1025.6
20260506033539 67 252 6.1 10.4 0.00 0.00 0.00 75 1025.6
20260506033054 67 243 6.1 10.4 0.00 0.00 0.00 75 1025.7
20260506032543 67 238 5.2 8.7 0.00 0.00 0.00 75 1025.7
20260506032039 67 248 6.1 8.7 0.00 0.00 0.00 75 1025.6
20260506031549 67 249 5.2 9.6 0.00 0.00 0.00 75 1025.6
20260506031038 67 232 5.2 9.6 0.00 0.00 0.00 76 1025.6
20260506030538 67 241 7.0 9.6 0.00 0.00 0.00 75 1025.6
20260506030048 67 239 6.1 10.4 0.00 0.00 0.00 74 1025.5
20260506025539 67 238 6.1 10.4 0.00 0.00 0.00 75 1025.6
20260506025038 67 253 5.2 9.6 0.00 0.00 0.00 74 1025.6
20260506024546 68 256 6.1 10.4 0.00 0.00 0.00 73 1025.4
20260506024036 68 254 6.1 13.9 0.00 0.00 0.00 73 1025.5
20260506023539 68 242 6.1 13.9 0.00 0.00 0.00 74 1025.5
20260506023049 67 235 7.0 13.9 0.00 0.00 0.00 73 1025.4
20260506022538 68 264 7.0 11.3 0.00 0.00 0.00 74 1025.5
20260506022036 68 238 5.2 12.2 0.00 0.00 0.00 74 1025.5
20260506021540 68 249 6.1 12.2 0.00 0.00 0.00 75 1025.4
20260506021038 67 261 7.0 12.2 0.00 0.00 0.00 74 1025.5
20260506020539 68 242 6.1 12.2 0.00 0.00 0.00 74 1025.6
20260506020053 67 242 7.8 13.0 0.00 0.00 0.00 75 1025.5
20260506015539 68 257 7.8 13.0 0.00 0.00 0.00 73 1025.6
20260506015039 68 247 5.2 12.2 0.00 0.00 0.00 74 1025.7
20260506014545 68 257 6.1 12.2 0.00 0.00 0.00 75 1025.6
20260506014039 68 315 7.0 12.2 0.00 0.00 0.00 73 1025.5
20260506013539 68 265 6.1 12.2 0.00 0.00 0.00 74 1025.5
20260506013053 68 271 4.3 11.3 0.00 0.00 0.00 73 1025.6
20260506012541 68 306 5.2 13.9 0.00 0.00 0.00 74 1025.8
20260506012041 68 261 7.0 13.9 0.00 0.00 0.00 74 1025.9
20260506011546 68 274 6.1 12.2 0.00 0.00 0.00 74 1026.0
20260506011039 68 260 7.0 12.2 0.00 0.00 0.00 73 1025.9
20260506010539 68 273 6.1 12.2 0.00 0.00 0.00 73 1026.0
20260506010049 68 234 6.1 13.0 0.00 0.00 0.00 73 1026.0
20260506005538 67 307 7.8 13.9 0.00 0.00 0.00 72 1026.1
20260506005038 67 249 5.2 13.9 0.00 0.00 0.00 74 1026.1
20260506004547 67 254 5.2 11.3 0.00 0.00 0.00 72 1026.2